Regional Weather Roundup
Issued by NWS Grand Forks, ND

Home | Current Version | Previous Version | Text Only | Print | Product List | Glossary On
Versions: 1 2 3 4 5 6 7 8 9 10 11 12 13 14 15 16 17 18 19 20 21 22 23 24 25 26 27 28 29 30 31 32 33 34 35 36 37 38 39 40 41 42 43 44 45 46 47 48 49 50
000
ASUS43 KFGF 110610
RWRFGF
PRAIRIE TO PINES  WEATHER ROUNDUP
NATIONAL WEATHER SERVICE EASTERN NORTH DAKOTA/GRAND FORKS ND
1200 AM CST SUN DEC 11 2016

 **SATELLITE DATA USED TO AUGMENT SKY COVER AT AUTOMATED STATIONS**
 *****  WEATHER ACROSS EASTERN NORTH DAKOTA  *****

CITY           SKY/WX    TMP DP  RH WIND       PRES   REMARKS
GRAND FORKS    CLOUDY   -11 -16  78 N6        30.19S WCI -25
6HR MIN TEMP: -11; 6HR MAX TEMP:  -3;

GRAND FRKS AFB MOCLDY   -10 -16  76 N6        30.18F WCI -24
DEVILS LAKE    CLOUDY    -5  -9  83 E9        30.10F WCI -22
6HR MIN TEMP:  -6; 6HR MAX TEMP:  -4; 6HR PCP: TRACE;

FARGO          CLOUDY     7   0  73 NE9       30.12F WCI  -7
WAHPETON ARPT  CLOUDY    10   3  72 E10       30.08F WCI  -3
$$

 ***** WEATHER ACROSS CENTRAL AND WESTERN NORTH DAKOTA  *****

CITY           SKY/WX    TMP DP  RH WIND       PRES   REMARKS
BISMARCK       LGT SNOW   0  -4  83 E9        30.01R FOG     WCI -15
6HR MIN TEMP:  -3; 6HR MAX TEMP:   1; 6HR PCP:  0.02;

MINOT          LGT SNOW  -2  -7  79 NE7       30.05R WCI -15
6HR MIN TEMP:  -6; 6HR MAX TEMP:  -2; 6HR PCP: TRACE;

JAMESTOWN      FLURRIES  -1  -5  82 E12       30.02F WCI -18
6HR MIN TEMP:  -2; 6HR MAX TEMP:   0; 6HR PCP: TRACE;

MINOT AFB      LGT SNOW  -4  -8  84 E8        30.05R WCI -19
GARRISON         N/A     -2  -6  83 E7        30.00R WCI -15
WILLISTON      LGT SNOW   0  -5  79 SE12      29.92F WCI -17
6HR MIN TEMP:   0; 6HR MAX TEMP:   3; 6HR PCP:  0.19;

DICKINSON      LGT SNOW  -1  -6  79 E10       29.83S WCI -17
6HR MIN TEMP:  -5; 6HR MAX TEMP:  -1; 6HR PCP:  0.01;

HETTINGER      CLOUDY     0  -5  79 E3        29.84F
6HR MIN TEMP:  -2; 6HR MAX TEMP:   0; 6HR PCP:  0.01;

$$

 *****  OTHER AIRPORT OBSERVATIONS IN OUR AREA  *****

CITY           SKY/WX    TMP DP  RH WIND       PRES   REMARKS
WALHALLA         N/A    -11 -11 100 NW3       30.23F
GRAFTON AIRPOR FAIR      -8 -11  84 NE7       30.23S WCI -22
VALLEY CITY AR CLOUDY     0  -2  92 E12       30.07S WCI -18
CANDO          CLOUDY    -4  -8  84 E12       30.13F WCI -22
CAVALIER APRT    N/A     -8 -11  84 N5        30.22F WCI -19
GWINNER        CLOUDY     9   5  85 E17       30.03S WCI -10
ROLLA          CLOUDY    -8 -11  84 SE8       30.08S WCI -23
 ***** THE ABOVE OBSERVATIONS ARE NON NWS ARE NOT QUALITY
       CONTROLLED AND MAY MIS-REPORT RAIN FOR SNOW...
$$

  *****  WEATHER ACROSS NORTHERN MINNESOTA  *****

CITY           SKY/WX    TMP DP  RH WIND       PRES   REMARKS
FLAG ISLAND    NOT AVBL
WARROAD        CLOUDY    -9 -13  84 SE6       30.21F FOG     WCI -23
ROSEAU         CLOUDY   -15 -18  84 CALM      30.22S
HALLOCK        CLOUDY    -8 -11  84 E10       30.21F WCI -26
THF RVR FALLS  CLOUDY    -8 -12  83 E9        30.17F WCI -25
6HR MIN TEMP:  -9; 6HR MAX TEMP:  -6; 6HR PCP: TRACE;

BAUDETTE       CLOUDY    -9 -13  83 E5        30.20F WCI -20
6HR MIN TEMP: -12; 6HR MAX TEMP:  -2;

WASKISH        CLOUDY    -8  -9  92 E6        30.18F WCI -21
CROOKSTON      CLOUDY    -4  -8  84 E9        30.18F WCI -20
GREENBUSH NDAW   N/A     -9 -13  84 NE3         N/A
$$
  *****  WEATHER ACROSS CENTRAL AND WEST MINNESOTA  *****

CITY           SKY/WX    TMP DP  RH WIND       PRES   REMARKS
FOSSTON        CLOUDY    -8 -11  84 E6        30.14F WCI -21
BEMIDJI        CLOUDY    -3  -7  84 E6        30.12F WCI -16
PARK RAPIDS    CLOUDY     4  -3  73 E12       30.10F WCI -12
6HR MIN TEMP:   0; 6HR MAX TEMP:   4;

ELBOW LAKE     LGT SNOW   9   5  84 SE14      30.05F WCI  -8
WADENA         FLURRIES   7   1  78 E7        30.08F WCI  -5
DETROIT LAKES  CLOUDY     7   1  78 E8        30.09F WCI  -6
MOORHEAD       MIX PCPN   7   0  72 E7        30.11F WCI  -5
FERGUS FALLS   CLOUDY     9   1  72 E8        30.11F WCI  -4
MORRIS MN      LGT SNOW  10   7  85 E18       30.03F WCI  -8
STAPLES        NOT AVBL
$$
  *****  WEATHER ELSEWHERE ACROSS MINNESOTA  *****

CITY           SKY/WX    TMP DP  RH WIND       PRES   REMARKS
DULUTH         CLOUDY     5   0  79 CALM      30.17F
6HR MIN TEMP:   0; 6HR MAX TEMP:   5;

INTRNTL FALLS  CLOUDY   -10 -15  78 CALM      30.23F HAZE
6HR MIN TEMP: -16; 6HR MAX TEMP: -10;

ELY            CLOUDY   -15 -18  84 CALM      30.20F
CLOQUET        CLOUDY     5   0  78 NE3       30.17F
WHEATON        FLURRIES  12   9  85 E12       30.07F WCI  -2
BRAINERD       LGT SNOW   8   4  83 NE5       30.13F FOG     WCI   0
6HR MIN TEMP:   5; 6HR MAX TEMP:   8; 6HR PCP: TRACE;

HIBBING        CLOUDY   -13 -17  82 CALM      30.18F
6HR MIN TEMP: -13; 6HR MAX TEMP:  -8;

ALEXANDRIA     LGT SNOW   9   5  84 E14       30.05F FOG     WCI  -7
6HR MIN TEMP:   6; 6HR MAX TEMP:  10; 6HR PCP:  0.01;

SAINT CLOUD    LGT SNOW  11   8  88 E8        30.13S FOG     WCI  -1
6HR MIN TEMP:   9; 6HR MAX TEMP:  11; 6HR PCP:  0.03;

MINNEAPOLIS    LGT SNOW  14  10  84 E9        30.14F FOG     WCI   2
6HR MIN TEMP:  12; 6HR MAX TEMP:  14; 6HR PCP:  0.12;

$$

  *****  WEATHER ACROSS SOUTH DAKOTA  *****

CITY           SKY/WX    TMP DP  RH WIND       PRES   REMARKS
SIOUX FALLS    CLOUDY    21  19  92 E16       29.88F WCI   7
6HR MIN TEMP:  17; 6HR MAX TEMP:  21; 6HR PCP:  0.09;

BROOKINGS      LGT SNOW  16  10  79 E15       29.89F FOG     WCI   1
WATERTOWN      LGT SNOW   8   4  83 E13G23    29.90F VSB 3/4 WCI  -8
6HR MIN TEMP:   4; 6HR MAX TEMP:   8; 6HR PCP:  0.12;

HURON          LGT SNOW  17  14  88 E12       29.87S FOG     WCI   4
6HR MIN TEMP:  13; 6HR MAX TEMP:  17; 6HR PCP:  0.09;

SISSETON         N/A     10   6  84 SE7       30.02F WCI  -1
ABERDEEN       LGT SNOW  10   4  76 NE12      29.96F VSB 1   WCI  -5
6HR MIN TEMP:   6; 6HR MAX TEMP:  10; 6HR PCP:  0.06;

MITCHELL       CLOUDY    22  19  89 SE17      29.83F WCI   8
PIERRE         LGT SNOW  10   6  84 NE15      29.84R FOG     WCI  -7
6HR MIN TEMP:   8; 6HR MAX TEMP:  12; 6HR PCP: TRACE;

MOBRIDGE       LGT SNOW   7   0  73 E9        29.88R WCI  -7
RAPID CITY     CLOUDY     5   0  79 N9        29.78R WCI  -9
6HR MIN TEMP:   4; 6HR MAX TEMP:   7; 6HR PCP: TRACE;

$$

  *****  SOME WEATHER IN NEARBY STATES *****

CITY           SKY/WX    TMP DP  RH WIND       PRES   REMARKS
GLASGOW MT     FLURRIES   2  -4  76 VRB3      29.88R
6HR MIN TEMP:   0; 6HR MAX TEMP:   3; 6HR PCP:  0.05;

GREAT FALLS MT CLOUDY    -3  -6  87 SE7       29.82R WCI -16
6HR MIN TEMP:  -5; 6HR MAX TEMP:   2;

CHEYENNE WY    CLOUDY    37  28  70 NW15G26   29.74R
6HR MIN TEMP:  37; 6HR MAX TEMP:  45;

SCOTTSBLUFF NE CLOUDY    39  27  62 NW22G30   29.70R
6HR MIN TEMP:  21; 6HR MAX TEMP:  40;

OMAHA NE       CLOUDY    31  19  61 SE14      29.88F WCI  21
6HR MIN TEMP:  31; 6HR MAX TEMP:  32;

DES MOINES IA  CLOUDY    28  20  71 E7        29.99F WCI  21
6HR MIN TEMP:  25; 6HR MAX TEMP:  28;

DAVENPORT IA   CLOUDY    25  20  81 SE13      30.14F WCI  14
6HR MIN TEMP:  22; 6HR MAX TEMP:  25; 6HR PCP: TRACE;

CHICAGO IL     LGT SNOW  23  20  88 S13       30.26F FOG     WCI  11
6HR MIN TEMP:  21; 6HR MAX TEMP:  23; 6HR PCP:  0.10;

EAU CLAIRE WI  LGT SNOW  14  11  87 E8        30.18F FOG     WCI   3
6HR MIN TEMP:  12; 6HR MAX TEMP:  14; 6HR PCP:  0.02;

LA CROSSE WI   LGT SNOW  18  15  88 SE6       30.18F FOG     WCI  10
6HR MIN TEMP:  16; 6HR MAX TEMP:  18; 6HR PCP:  0.15;

$$

  *****  SOME NATIONAL WEATHER *****

CITY           SKY/WX    TMP DP  RH WIND       PRES   REMARKS
LA GUARDIA NY  PTCLDY    32  17  54 NW13      30.47R WCI  22
6HR MIN TEMP:  32; 6HR MAX TEMP:  35;

RALEIGH NC     PTCLDY    28  17  63 CALM      30.50F
6HR MIN TEMP:  26; 6HR MAX TEMP:  33;

ATLANTA GA     PTCLDY    37  21  52 SE7       30.40F
6HR MIN TEMP:  37; 6HR MAX TEMP:  43;

NEW ORLEANS LA CLEAR     39  33  79 CALM      30.35F
6HR MIN TEMP:  39; 6HR MAX TEMP:  46;

OKLAHOMA CITY  CLOUDY    48  41  76 S23G35    29.90F
6HR MIN TEMP:  39; 6HR MAX TEMP:  48;

ALBUQUERQUE NM CLOUDY    37  30  75 SE7       30.04S
6HR MIN TEMP:  37; 6HR MAX TEMP:  49;

SALT LAKE CITY LGT RAIN  34  33  96 SE6       29.94R FOG
6HR MIN TEMP:  34; 6HR MAX TEMP:  41; 6HR PCP:  0.35;

LOS ANGELES CA CLOUDY    60  59  96 W6        30.12S
6HR MIN TEMP:  59; 6HR MAX TEMP:  61;

BOISE ID       FOG       31  30  96 CALM      29.98R VSB 1/4
6HR MIN TEMP:  30; 6HR MAX TEMP:  31;

SEATTLE WA     CLOUDY  C1F1C2F2C3F3C4F4C5F5C6F6C7F7C8F8C9F9CaFaCbFbCcFcCd!



USA.gov is the U.S. government's official web portal to all federal, state and local government web resources and services.